Home   Weather   Reims   Past weeks

Flag for France Past Weather in Reims, Champagne-Ardenne, France — Yesterday and Last 2 Weeks

Now
19 °F

Clear.


Feels Like: 10 °F
Forecast: 20 / 34 °F
Wind: 7 mph from North

Location: Chalons-Vatry

Current Time: Jan 19, 2017 at 10:06:09 am

Latest Report: Jan 19, 2017 at 9:30 am


Visibility: 5 mi

Pressure: 30.48 "Hg

Humidity: 86%

Dew Point: 16 °F

Location of ReimsLocation

Past Weather in Reims — Graph

°F

Reims Temperature Yesterday

Maximum temperature yesterday: 30 °F (at 1:00 pm)
Minimum temperature yesterday: 21 °F (at 12:30 am)
Average temperature yesterday: 24 °F

High & Low Weather Summary for the Past Weeks

 TemperatureHumidityPressure
High46 °F (Jan 11, 4:00 pm)100% (Jan 4, 8:00 am)30.72 "Hg (Jan 4, 8:00 am)
Low18 °F (Jan 7, 2:30 am)64% (Jan 6, 3:00 pm)29.33 "Hg (Jan 12, 8:30 pm)
Average32 °F92%30.23 "Hg
* Reported Jan 4 8:00 am — Jan 19 8:30 am, Reims, Weather by CustomWeather, © 2017

Note: Actual official high and low records may vary slightly from our data, if they occured in-between our weather recording intervals... More about our weather records

Advertising

Reims Weather History for the Previous 24 Hours

Scroll right to see more
 ConditionsComfort  
Time TempWeatherWind HumidityBarometerVisibility
8:30 am
Thu, Jan 19
19 °FClear.10 mph86%30.48 "Hg5 mi
8:00 am19 °FClear.9 mph86%30.48 "Hg5 mi
7:30 am19 °FClear.13 mph86%30.45 "Hg6 mi
7:00 am19 °FClear.13 mph86%30.45 "Hg5 mi
6:30 am18 °FCold.10 mph86%30.48 "Hg5 mi
6:00 am18 °FClear.12 mph86%30.45 "Hg5 mi
5:30 am18 °FClear.8 mph93%30.48 "Hg6 mi
5:00 am19 °FClear.8 mph86%30.48 "Hg6 mi
4:30 am19 °FCold.10 mph86%30.48 "HgN/A
4:00 am19 °FClear.10 mph86%30.48 "Hg10 mi
3:30 am19 °FClear.7 mph86%30.48 "Hg10 mi
3:00 am19 °FClear.13 mph86%30.45 "Hg10 mi
2:30 am21 °FClear.13 mph80%30.48 "Hg10 mi
2:00 am21 °FClear.15 mph86%30.48 "Hg10 mi
1:30 am21 °FClear.17 mph86%30.48 "Hg10 mi
1:00 am21 °FClear.14 mph86%30.48 "Hg10 mi
12:30 am21 °FClear.16 mph86%30.48 "Hg10 mi
12:00 am21 °FClear.15 mph86%30.48 "Hg10 mi
11:30 pm
Wed, Jan 18
23 °FClear.15 mph80%30.48 "Hg10 mi
11:00 pm23 °FClear.15 mph80%30.48 "Hg10 mi
10:30 pm23 °FClear.14 mph80%30.48 "Hg10 mi
10:00 pm23 °FClear.13 mph80%30.48 "Hg10 mi
9:30 pm23 °FClear.14 mph80%30.48 "Hg10 mi
9:00 pm23 °FClear.15 mph80%30.51 "Hg10 mi
8:30 pm23 °FClear.15 mph80%30.51 "Hg10 mi
8:00 pm23 °FClear.14 mph80%30.51 "Hg10 mi
7:30 pm25 °FClear.14 mph80%30.51 "Hg10 mi
7:00 pm25 °FClear.14 mph80%30.51 "Hg10 mi
6:30 pm27 °FClear.14 mph74%30.51 "Hg10 mi
6:00 pm27 °FSunny.16 mph80%30.51 "Hg10 mi
5:30 pm28 °FSunny.13 mph74%30.48 "Hg10 mi
5:00 pm28 °FSunny.12 mph80%30.48 "Hg10 mi
4:30 pm30 °FSunny.16 mph75%30.48 "Hg10 mi
4:00 pm30 °FSunny.21 mph69%30.48 "Hg10 mi
3:30 pm30 °FClear.23 mph69%30.48 "Hg5 mi
3:00 pm30 °FClear.21 mph69%30.48 "Hg5 mi
2:30 pm30 °FClear.23 mph69%30.48 "Hg4 mi
2:00 pm30 °FClear.24 mph69%30.48 "Hg5 mi
1:30 pm30 °FSunny.25 mph69%30.48 "Hg10 mi
1:00 pm30 °FSunny.24 mph69%30.51 "Hg10 mi
12:30 pm28 °FSunny.24 mph74%30.51 "Hg10 mi
12:00 pm28 °FSunny.23 mph74%30.51 "Hg10 mi
11:30 am27 °FSunny.23 mph80%30.51 "Hg10 mi
11:00 am27 °FSunny.21 mph74%30.51 "Hg10 mi
10:30 am25 °FSunny.20 mph80%30.51 "Hg10 mi
10:00 am23 °FSunny.15 mph86%30.51 "Hg10 mi
Weather by CustomWeather, © 2017

See weather overviewHow to use our weather pages